GFSNGP_925_thetae_159.txt.gz
Theta_e
332 334 335 334 332 332 333 333 335 335 337 343 343 341 342 343 345 345 346 346 348 350 350 351 352 351 351 351 351 349 352 353 353 353 352 352 351 351 351 351 352 351 351 350
334 333 334 333 332 332 333 334 334 333 335 334 339 339 341 342 345 345 345 343 347 347 347 349 350 350 350 351 351 350 351 353 354 353 352 352 354 352 353 352 352 351 351 352
335 336 334 332 332 332 332 332 333 335 336 336 341 338 340 343 344 345 345 346 345 345 346 347 345 348 348 350 350 350 349 353 354 354 355 355 356 355 353 353 352 352 352 352
335 334 337 335 332 332 331 331 333 334 339 340 340 339 340 341 342 344 344 346 344 343 343 344 342 343 340 342 345 346 347 348 350 352 353 353 353 353 354 352 350 352 352 352
339 335 336 336 333 333 332 331 332 333 334 338 340 340 342 342 343 345 346 347 344 343 343 341 340 342 342 343 338 339 336 341 347 346 348 348 349 350 353 353 352 353 354 353
336 338 341 339 333 332 331 334 332 333 334 341 342 345 339 346 344 347 349 347 347 345 344 344 344 343 340 340 341 341 336 334 340 342 346 347 348 348 348 349 347 346 346 348
336 338 338 334 330 332 334 333 333 332 333 340 342 346 348 344 346 347 346 346 345 344 344 344 344 343 344 344 345 345 345 341 340 342 342 342 342 345 345 343 339 341 342 341
335 337 338 331 332 335 332 335 333 333 334 339 342 347 346 346 347 347 346 345 345 343 342 341 342 342 343 343 344 344 345 344 345 344 343 342 345 343 340 340 341 339 338 334
335 335 340 336 333 333 331 333 334 334 337 340 347 346 343 345 344 343 338 335 335 335 335 336 337 340 341 342 341 343 342 339 338 338 338 339 339 338 337 336 335 333 332 331
334 334 334 334 332 331 333 333 334 335 338 342 344 344 343 341 340 338 337 335 334 334 334 335 336 337 340 340 339 340 336 336 332 332 332 335 336 337 337 336 335 334 334 332
335 335 334 334 332 335 335 335 334 337 340 342 342 343 341 341 339 337 337 336 335 335 333 334 335 337 337 337 338 334 333 336 336 334 330 328 325 328 331 329 331 334 334 333
335 340 340 336 336 336 337 337 336 339 341 341 341 341 340 340 338 337 337 337 336 335 334 333 335 336 336 336 336 332 331 332 334 335 334 331 327 324 326 327 327 328 329 330
334 334 338 338 337 337 337 337 337 339 340 341 340 339 338 339 337 336 336 336 335 333 333 333 335 336 336 335 334 333 335 335 333 334 333 333 332 331 328 324 325 326 326 326
333 334 339 337 336 335 337 337 336 338 339 337 336 335 334 335 337 334 334 334 332 330 331 334 335 335 336 335 334 334 335 330 331 331 330 330 331 332 331 330 330 326 324 324
333 333 336 335 338 337 337 338 338 337 336 334 332 333 332 332 333 333 332 330 328 330 330 334 335 335 334 335 335 335 332 332 333 333 333 333 331 332 332 331 331 329 323 321
333 334 334 337 338 334 336 337 336 336 333 333 333 330 330 331 333 333 330 327 329 330 330 334 334 334 335 335 335 334 334 334 333 332 330 332 331 330 328 329 330 330 329 327
334 333 334 337 338 338 337 335 335 335 333 332 329 330 331 332 333 331 328 327 328 330 330 331 334 333 334 334 334 332 332 331 331 332 331 330 326 325 326 322 321 320 319 319
332 331 331 333 336 337 336 334 333 333 333 330 329 331 333 335 334 331 329 329 329 329 329 330 331 333 332 330 328 325 326 326 327 326 325 325 325 324 323 322 321 320 318 313
329 330 332 332 335 334 338 336 333 332 331 330 331 333 334 335 334 333 331 331 331 329 329 329 329 328 328 326 325 322 324 324 325 324 324 324 322 323 322 322 322 321 320 318
329 330 331 332 331 333 337 335 332 333 331 330 332 333 335 335 335 334 333 333 331 330 328 329 329 326 328 328 324 326 322 322 324 324 324 322 323 323 323 321 320 322 322 321
330 331 330 332 332 332 334 334 333 334 333 333 334 337 337 336 335 335 335 335 333 330 329 329 327 326 327 327 324 325 325 323 324 323 323 321 322 322 323 323 322 320 321 321
331 330 331 331 332 333 332 333 332 332 335 335 336 337 338 337 336 336 335 334 333 330 329 328 327 327 326 325 323 321 323 323 324 323 324 324 324 323 323 323 323 323 322 322
330 330 330 332 332 330 330 330 332 333 334 336 338 338 338 337 336 336 337 333 333 331 328 328 327 326 326 324 325 326 326 324 323 323 323 324 324 323 323 323 323 323 323 323
330 330 330 329 329 331 333 331 330 332 334 335 336 336 336 335 334 334 332 332 331 331 329 328 327 326 325 326 326 327 326 327 327 326 325 325 325 325 324 324 323 322 322 323
333 331 331 330 332 331 331 332 331 331 335 336 336 336 335 333 331 331 331 331 331 331 329 328 327 326 327 327 327 327 327 328 328 328 328 327 327 326 326 325 325 324 323 323
334 334 332 332 330 329 329 329 331 329 332 333 334 334 333 332 331 330 330 331 331 330 329 329 328 328 327 327 327 327 327 328 328 328 328 328 329 328 328 327 326 325 325 324
331 329 332 332 331 329 327 329 330 329 329 329 331 331 330 329 329 328 328 331 331 329 328 329 329 328 328 327 326 326 327 327 328 328 329 329 330 330 329 329 328 327 327 325

GFSNGP_925_thetae_162.txt.gz
Theta_e
332 336 337 338 337 335 330 332 333 340 338 342 344 343 341 344 344 346 346 348 351 350 350 351 352 354 353 354 353 354 353 353 354 353 353 352 349 351 350 351 350 352 350 351
332 332 334 337 338 338 331 333 333 333 337 339 342 343 344 345 346 346 347 345 348 347 350 348 350 352 353 352 352 350 351 349 350 347 349 343 346 350 351 351 350 350 351 352
335 331 337 344 340 337 334 335 335 336 337 343 341 341 342 344 344 345 346 346 347 347 347 348 348 351 351 351 352 351 350 348 349 350 341 336 339 350 350 349 351 352 352 352
336 337 339 335 337 336 332 332 331 332 340 339 342 339 339 340 342 344 345 350 348 345 344 343 343 343 343 349 350 349 346 347 347 348 350 350 351 352 355 354 350 350 350 352
341 339 337 335 335 336 334 334 331 331 336 339 340 339 341 339 340 345 344 348 347 344 343 344 344 344 343 340 340 338 338 341 342 342 340 345 348 350 351 352 354 354 351 352
337 338 340 339 335 335 336 337 332 331 334 341 340 342 340 341 341 344 346 346 345 344 344 344 341 340 342 342 338 335 338 336 338 341 340 339 340 346 348 349 349 348 346 348
336 338 336 336 334 334 342 339 334 333 334 342 343 348 349 345 345 348 349 349 347 344 344 345 344 344 344 344 343 344 342 342 340 340 339 340 341 343 345 344 343 343 342 341
339 340 340 336 336 337 338 335 334 335 340 345 352 349 347 347 351 348 347 345 345 345 345 344 345 344 345 345 345 345 345 346 347 345 343 343 342 343 341 341 341 340 338 336
335 337 340 339 336 334 333 338 335 335 336 349 349 347 347 350 350 347 346 346 345 343 342 341 341 341 343 345 344 344 344 341 339 339 339 339 340 340 338 339 338 336 334 332
341 337 338 335 334 336 334 334 335 334 337 343 347 345 346 346 345 342 338 336 336 336 337 337 339 338 342 341 339 342 339 336 335 335 336 337 337 336 336 335 335 334 333 333
339 341 343 336 333 334 333 334 335 335 337 343 344 343 343 344 344 341 338 336 336 336 335 337 337 338 338 338 337 338 337 337 336 334 332 331 331 331 331 331 333 335 334 334
336 332 336 340 337 336 337 335 336 339 341 341 345 346 345 344 342 341 340 338 337 336 335 336 336 336 334 337 338 335 336 338 337 336 335 330 328 325 327 328 329 330 330 330
332 328 331 336 337 339 339 337 337 340 342 343 343 343 343 345 341 340 339 337 334 334 335 335 334 336 336 336 337 336 337 338 336 336 335 334 333 332 328 325 327 327 328 328
329 328 332 334 339 339 338 336 336 339 340 341 339 339 339 341 339 338 337 335 334 331 334 331 334 337 336 337 337 335 336 334 335 334 333 332 333 333 332 332 330 326 325 325
330 333 337 336 336 336 337 337 339 341 340 340 337 336 336 343 338 335 334 333 330 329 336 334 336 336 335 337 337 337 336 333 334 334 333 333 333 333 332 333 332 328 325 323
331 334 336 336 335 339 339 338 340 340 338 338 336 335 334 334 332 333 332 330 330 331 335 335 335 336 335 335 336 336 335 334 335 334 333 333 332 332 332 332 331 330 329 326
335 335 337 336 340 340 339 338 339 339 337 337 337 333 332 332 334 334 330 328 330 332 334 336 335 335 335 335 336 334 335 334 333 333 332 332 332 331 331 331 331 332 328 324
334 335 336 336 340 337 339 338 339 338 338 334 333 332 335 337 338 333 330 329 329 331 331 332 333 333 334 335 335 333 333 330 331 333 332 331 327 323 323 322 321 321 319 315
332 334 332 334 337 340 340 339 338 336 334 333 335 337 337 336 335 333 332 331 331 333 331 331 331 332 332 330 327 325 326 325 325 326 325 324 324 324 323 323 322 321 318 314
332 330 331 336 333 335 336 336 337 336 334 334 335 338 340 338 336 335 334 334 332 330 330 331 330 329 329 328 325 326 324 324 325 325 325 324 322 324 324 322 322 323 322 320
330 330 333 333 333 333 337 335 334 333 330 334 336 340 340 339 338 337 337 336 334 332 329 330 331 326 328 329 325 325 327 323 323 323 324 323 323 323 324 324 322 320 321 322
331 331 331 332 333 333 334 332 333 329 332 331 337 339 341 341 340 339 337 336 337 331 331 331 330 328 327 327 327 321 323 325 324 324 324 324 323 323 323 323 324 324 323 322
331 333 331 333 333 333 333 330 332 332 330 330 339 340 342 339 339 340 342 338 336 331 330 331 328 327 326 325 325 324 322 324 324 324 324 324 324 324 324 324 324 324 324 324
332 332 334 331 331 332 338 336 334 336 334 339 341 341 341 339 339 337 337 336 335 332 330 330 328 327 325 326 325 326 327 327 327 325 325 325 326 326 326 325 324 323 323 323
333 331 332 331 333 333 336 334 334 335 336 338 338 340 340 338 337 336 335 335 333 334 330 330 328 327 325 326 326 327 327 328 328 329 329 329 328 327 326 326 326 326 325 325
336 332 332 328 331 330 331 333 330 330 334 334 335 338 337 336 336 334 333 332 333 333 332 329 327 326 327 327 327 327 328 328 328 328 328 329 329 330 330 330 329 328 327 325
333 330 331 333 332 331 329 329 329 328 329 332 335 336 336 335 334 332 330 333 333 333 332 330 328 327 328 328 328 327 328 329 329 329 329 329 328 328 328 328 325 320 323 327

GFSNGP_925_thetae_165.txt.gz
Theta_e
329 336 337 335 333 333 334 336 334 339 344 344 342 346 344 344 346 347 349 351 349 349 348 348 348 351 354 353 353 353 354 352 351 348 347 351 350 350 346 348 348 350 348 344
332 331 334 335 335 335 337 337 335 338 337 341 341 339 343 343 347 347 350 350 348 348 346 346 349 351 351 352 351 351 350 351 348 338 341 349 348 348 350 349 349 349 350 349
333 331 331 339 337 337 337 337 337 337 339 340 342 342 344 345 346 346 347 348 347 347 345 347 347 349 350 351 352 350 349 349 348 348 348 347 345 344 346 345 349 350 349 350
340 339 340 333 334 336 336 337 335 335 338 339 341 341 343 343 344 346 348 347 345 343 342 344 343 342 346 348 348 347 346 346 347 347 345 344 343 342 341 337 347 349 349 349
339 340 338 335 336 336 339 338 335 340 341 340 338 338 341 341 341 344 346 344 344 344 343 344 343 340 338 338 338 339 341 343 345 345 341 340 339 341 335 334 347 348 347 349
336 339 341 336 336 336 334 339 335 335 338 341 339 341 339 339 341 346 346 344 344 344 343 342 342 343 341 338 334 337 338 338 340 341 340 340 338 335 334 343 348 348 346 346
332 336 335 337 335 335 338 336 336 334 338 338 341 341 338 345 345 345 345 345 344 342 343 342 341 341 341 341 341 342 341 341 339 340 341 341 338 337 341 341 342 343 341 339
332 332 334 334 335 334 334 334 334 333 346 347 345 346 350 349 350 348 346 346 346 346 345 345 344 344 345 344 344 345 345 345 344 343 342 342 341 342 342 341 342 339 336 334
340 340 333 334 333 335 332 333 333 338 348 346 346 351 350 348 347 345 344 345 345 345 344 343 341 342 344 344 344 343 341 339 338 339 339 338 340 339 338 338 337 336 335 334
336 338 334 333 337 334 333 333 332 346 346 345 347 350 349 346 344 344 344 345 345 344 341 339 337 340 342 341 340 339 337 335 334 336 336 337 336 336 336 335 335 334 333 332
334 336 332 338 330 331 331 334 335 335 345 345 345 346 346 343 338 336 337 338 338 338 339 338 337 337 338 336 337 337 337 336 335 334 331 332 331 331 330 332 334 334 334 333
332 334 332 330 329 330 331 334 335 331 345 343 343 343 341 339 338 338 338 337 336 335 337 336 336 336 333 334 335 335 337 338 336 335 332 329 328 327 329 330 330 331 331 331
331 331 329 329 329 331 334 334 335 341 342 342 341 340 339 340 340 339 338 336 336 335 336 335 334 333 332 334 334 334 337 337 336 336 333 332 330 329 327 327 328 328 328 328
328 330 331 331 330 330 336 336 334 340 342 342 341 341 341 340 340 340 337 335 335 334 335 334 335 335 334 333 333 336 336 335 335 334 334 333 333 332 330 329 327 326 325 326
330 328 330 330 332 333 336 336 336 336 340 340 341 340 340 339 338 339 337 333 331 333 332 332 335 336 335 334 334 335 333 333 334 333 332 332 333 333 332 332 330 327 325 324
327 326 329 334 334 336 336 336 336 331 339 338 338 339 339 338 336 335 331 329 331 335 334 336 335 335 336 334 335 335 335 333 334 334 333 333 333 333 332 332 331 329 326 324
331 333 333 335 336 337 337 335 335 333 337 336 336 337 333 335 335 332 329 328 329 335 334 335 336 335 333 334 335 335 335 333 333 334 333 333 333 332 332 331 331 331 330 327
327 334 332 333 332 335 332 332 335 335 336 335 334 333 335 335 333 331 329 329 334 335 334 334 336 334 334 334 336 334 335 334 332 333 333 332 332 331 331 330 331 332 329 324
329 331 332 333 331 330 328 332 335 335 333 333 334 336 337 336 332 330 330 329 333 333 334 333 333 332 333 333 335 334 334 333 329 329 333 332 327 326 327 325 327 325 319 314
330 333 334 334 336 333 334 334 334 334 333 334 337 337 337 334 331 332 330 331 330 333 331 332 332 333 332 330 329 327 325 329 324 327 327 324 323 322 322 322 322 320 318 317
330 332 333 336 335 334 330 332 333 332 332 336 337 338 338 334 332 333 334 334 331 329 332 331 330 329 330 329 328 325 324 326 325 325 325 324 323 323 324 323 322 321 320 319
329 332 332 333 329 330 329 330 332 329 331 332 334 339 340 338 336 335 334 334 334 334 331 330 330 327 327 329 329 324 322 323 323 324 324 323 322 322 322 322 323 322 321 321
330 333 332 333 333 333 332 332 333 330 330 332 332 333 337 339 338 338 337 335 337 332 330 330 331 329 327 327 328 326 323 321 321 324 324 324 323 322 322 323 324 324 323 322
330 332 334 334 332 333 331 330 329 328 329 330 326 329 332 339 340 338 337 337 337 332 331 330 330 328 327 327 327 326 324 324 326 326 323 323 325 326 326 327 326 324 323 323
331 328 336 335 330 330 331 331 330 330 329 327 327 328 330 337 339 339 338 338 338 334 330 331 331 327 327 326 325 325 325 326 327 329 325 325 326 326 326 327 328 328 328 327
330 333 330 328 329 330 332 329 329 329 331 330 329 329 330 339 340 338 339 338 337 333 331 331 330 328 327 325 325 326 326 327 327 327 327 329 330 330 330 330 329 329 328 327
329 330 328 327 327 328 330 329 330 330 334 335 336 335 336 335 337 338 337 335 335 334 329 329 330 327 326 327 329 328 328 328 328 329 329 329 328 328 328 328 327 326 326 323

GFSNGP_925_thetae_168.txt.gz
Theta_e
323 325 334 332 332 330 332 329 333 334 341 345 343 344 344 343 344 348 350 348 347 345 342 344 348 349 351 352 353 352 351 352 351 349 349 347 349 348 347 348 346 345 347 348
328 331 333 332 333 334 335 334 333 334 336 337 341 342 344 344 347 349 349 348 347 345 344 344 347 349 350 352 351 352 351 350 349 349 349 346 348 349 347 347 347 347 348 345
331 330 330 335 332 332 333 335 333 334 332 333 340 343 344 343 346 348 348 347 346 344 343 345 347 348 349 350 350 350 349 348 349 349 346 343 339 348 347 345 345 345 345 345
332 332 336 329 328 331 333 334 333 334 334 336 341 341 341 342 342 348 347 346 344 342 344 343 342 345 346 345 344 346 347 347 347 348 346 343 343 344 344 345 340 342 339 336
334 334 332 333 334 335 335 334 334 335 334 334 338 340 342 340 341 345 345 343 342 340 342 339 337 338 337 337 340 342 343 346 345 345 345 345 344 342 341 339 336 336 335 336
331 335 337 332 333 332 331 335 334 336 336 335 340 345 342 338 341 343 342 342 340 341 342 342 339 333 332 334 335 336 336 339 342 342 341 342 340 340 338 336 342 343 344 341
328 332 331 331 333 331 335 334 333 333 333 335 339 338 335 337 342 342 342 342 342 342 342 341 341 337 336 337 337 338 340 339 339 340 341 340 338 338 335 341 341 339 339 338
328 330 332 333 335 333 330 329 334 340 341 337 339 341 341 343 343 342 341 341 341 340 339 339 340 341 341 344 345 344 344 342 342 341 341 341 341 340 337 339 338 338 336 333
333 331 332 331 332 328 328 330 331 341 342 345 345 347 346 345 343 342 342 342 342 343 343 342 342 343 344 343 343 342 340 339 338 338 338 339 340 340 340 338 337 335 334 332
330 331 332 331 329 330 328 329 332 333 344 348 349 347 347 345 344 343 342 342 342 341 338 337 340 342 341 342 340 337 336 336 336 335 336 335 336 336 336 336 334 334 332 330
327 327 330 333 331 330 330 329 332 333 339 348 347 346 345 344 341 340 341 342 342 339 336 336 339 339 338 337 337 336 335 334 335 335 334 332 332 331 332 334 334 334 333 331
327 324 327 327 328 330 330 329 330 335 336 342 346 345 342 340 337 337 336 338 337 337 336 336 336 336 334 334 333 334 335 334 333 331 331 329 328 326 329 329 330 330 330 331
326 326 326 327 330 329 330 329 332 334 334 339 343 341 338 334 335 335 334 335 335 336 337 335 334 331 332 334 332 333 337 337 334 330 329 330 328 328 327 327 328 328 328 329
324 327 328 329 329 328 329 329 334 335 340 342 340 338 336 335 334 334 333 333 335 335 335 334 332 332 332 331 331 333 336 335 335 335 332 331 330 329 329 329 327 326 326 326
320 324 325 327 328 330 331 334 336 338 337 339 339 337 336 335 334 334 334 334 334 334 333 332 333 333 333 332 331 334 335 334 334 334 333 333 332 332 330 329 328 326 325 325
321 322 324 327 327 332 333 335 334 338 338 337 338 338 337 336 335 335 334 334 332 332 333 333 334 334 333 333 333 334 333 333 333 332 332 332 332 333 331 331 329 327 325 324
326 325 326 325 331 332 333 333 334 335 337 333 337 337 335 335 333 330 331 332 331 331 330 332 334 334 334 333 334 334 335 333 333 334 333 332 332 333 332 331 331 329 326 323
322 324 323 328 330 332 333 333 334 333 332 332 335 334 333 331 329 327 328 331 332 333 332 333 333 333 333 333 334 334 334 332 333 333 333 332 332 331 331 331 331 330 330 329
323 322 329 330 330 329 330 331 332 331 332 333 333 332 331 329 328 328 327 332 334 333 333 333 334 333 332 332 335 334 335 335 331 332 332 332 331 331 330 330 329 330 330 330
326 325 331 330 329 329 329 333 333 333 334 334 331 332 331 329 328 328 328 331 333 333 333 334 334 333 332 333 334 335 332 333 333 331 329 331 331 328 322 322 324 327 328 326
323 325 332 331 332 332 333 333 332 332 333 332 333 332 331 330 329 328 327 326 331 331 331 332 332 331 332 332 328 327 326 324 325 327 328 328 327 322 322 322 321 323 322 320
326 327 330 333 332 333 333 333 332 331 331 333 334 332 331 329 329 329 328 327 328 330 331 332 332 331 332 331 329 327 325 323 322 325 326 324 322 322 322 323 322 322 321 320
326 326 331 334 333 333 333 332 331 332 331 329 334 335 331 331 330 332 331 329 330 330 329 331 330 330 328 329 328 328 326 321 320 320 324 324 324 322 322 322 322 322 323 323
325 331 331 330 333 330 331 331 331 330 330 329 333 336 335 335 333 332 332 331 332 334 334 332 331 329 325 325 326 327 327 325 324 324 328 324 324 323 322 323 324 324 323 323
328 330 330 330 329 328 330 331 330 330 329 329 329 331 334 337 337 336 335 333 333 335 334 331 330 329 329 328 327 327 326 325 325 326 328 324 325 325 325 325 326 326 327 326
326 326 328 329 329 329 329 329 327 327 328 327 327 328 328 328 328 330 332 337 336 336 334 331 330 330 330 328 327 326 326 325 325 326 326 328 327 327 327 327 327 327 327 327
329 327 326 328 329 330 327 327 329 328 330 329 328 331 332 333 333 334 335 336 335 332 331 330 329 329 326 326 327 326 327 327 328 328 328 328 328 329 328 327 327 327 326 326

GFSNGP_925_thetae_171.txt.gz
Theta_e
319 319 328 328 331 330 329 328 331 332 341 337 337 337 337 340 342 345 350 347 345 344 342 344 347 348 350 349 348 347 346 345 344 343 346 347 348 346 348 347 346 345 345 346
325 324 330 332 328 328 332 330 331 332 333 332 337 339 341 342 343 348 350 347 345 342 342 344 346 347 349 350 351 351 349 348 348 345 345 347 348 346 343 345 342 346 346 346
328 328 329 331 329 329 332 331 331 333 330 333 342 342 341 343 344 348 349 347 344 342 340 343 346 348 348 349 350 350 350 350 350 349 350 349 348 345 344 342 337 345 344 344
331 330 334 327 327 328 328 333 330 332 331 331 339 341 340 341 344 347 347 345 342 341 341 343 345 345 345 346 346 346 347 347 347 346 346 346 346 345 345 345 343 345 343 342
334 332 329 333 333 332 332 331 331 332 333 333 335 339 340 338 341 345 344 343 342 342 341 340 342 342 341 341 343 342 343 343 344 343 344 341 341 341 342 345 344 343 342 342
329 333 336 330 330 330 329 333 331 331 331 336 339 345 343 338 339 342 342 341 340 340 338 337 337 335 335 337 337 338 339 341 341 342 343 343 342 341 340 338 338 338 339 339
327 329 328 330 334 331 334 332 330 329 330 337 339 340 338 337 338 341 341 339 339 338 336 334 332 331 332 333 333 336 338 339 339 339 340 340 339 339 339 339 339 339 340 336
325 329 332 332 334 333 328 328 329 331 332 334 334 334 337 339 340 340 339 338 339 338 339 337 333 334 336 339 340 342 343 341 340 340 341 339 338 337 336 339 337 335 334 332
328 326 328 330 330 328 325 327 332 332 332 332 335 337 338 341 341 340 340 339 339 338 338 339 339 339 341 343 343 343 341 339 338 337 337 338 339 340 339 338 337 334 332 330
327 329 330 327 329 329 328 328 328 328 333 339 338 339 341 341 340 340 339 339 339 338 337 338 340 341 343 343 342 339 337 337 335 336 336 336 336 337 337 337 335 334 332 329
327 326 325 330 330 328 330 329 328 330 333 334 344 342 342 342 341 340 340 340 340 338 337 339 341 342 342 340 337 336 335 335 334 334 333 333 332 332 333 334 334 333 332 331
327 324 324 324 324 327 329 329 328 331 334 333 340 343 342 341 341 340 339 339 337 335 337 338 339 339 338 336 333 333 333 334 333 331 331 331 330 330 331 332 332 331 331 331
324 323 323 324 325 328 328 328 328 332 333 334 335 341 341 339 339 339 337 337 335 334 336 336 336 335 334 334 332 332 332 334 332 329 327 326 327 328 327 328 329 329 329 329
323 325 327 326 327 326 327 327 329 333 337 337 339 339 337 336 335 336 336 336 337 335 335 335 333 331 332 332 331 331 334 334 334 331 329 327 327 327 327 327 326 325 326 328
316 320 322 322 323 325 327 328 331 334 337 338 341 338 336 334 334 335 335 336 336 335 335 333 331 331 333 330 330 330 331 335 335 334 332 330 330 328 327 326 326 324 324 324
317 318 318 321 323 326 328 330 332 332 338 336 337 336 335 335 333 331 333 334 332 331 333 331 331 331 332 331 330 332 332 334 334 334 332 332 331 332 330 329 328 326 324 324
318 320 321 322 324 325 326 329 330 330 336 335 334 336 336 335 333 330 330 333 333 333 331 331 332 332 332 332 331 332 332 333 332 332 331 331 331 331 330 330 330 328 325 323
316 318 317 322 323 326 329 330 331 331 332 334 333 336 334 333 332 329 330 332 332 331 331 330 332 332 332 333 333 333 334 332 332 333 332 331 331 332 331 331 331 330 328 325
317 318 320 322 323 326 330 332 332 332 332 333 334 335 334 333 332 328 330 329 329 329 330 331 332 332 332 332 333 333 333 332 332 333 332 331 331 331 331 330 330 329 329 329
323 324 321 324 328 328 328 330 332 332 332 332 334 334 333 330 329 326 329 329 330 330 330 332 332 332 331 332 333 334 333 334 334 331 331 331 331 330 330 327 328 329 328 329
327 327 324 327 328 328 330 332 332 332 332 332 333 333 332 328 326 326 327 327 330 331 331 331 332 332 332 332 333 334 334 329 330 330 331 330 329 330 328 322 321 322 323 326
321 324 328 329 328 329 331 332 332 331 332 332 332 332 330 326 325 325 327 328 329 331 332 331 332 332 331 332 332 330 328 326 324 322 323 326 327 327 325 321 322 322 321 322
326 330 332 330 331 331 332 331 331 331 331 332 331 330 328 327 326 325 324 326 328 331 331 331 330 331 330 330 331 330 328 326 323 321 322 324 325 324 321 321 322 322 321 322
328 330 330 331 332 332 332 331 331 332 330 330 333 331 329 328 328 328 328 327 327 327 329 330 330 330 331 331 331 329 327 328 324 321 322 326 325 324 323 322 321 321 321 323
329 329 330 332 333 330 328 330 330 328 328 328 329 333 333 331 330 331 330 331 330 330 330 330 330 330 330 329 327 327 326 327 326 324 325 326 326 324 323 323 322 324 324 323
326 328 328 329 328 329 328 329 326 327 329 326 327 329 330 332 334 334 334 334 334 333 333 333 332 331 330 329 327 326 327 326 325 325 324 325 326 324 324 323 325 326 325 325
325 327 327 328 328 327 328 328 328 327 327 328 328 328 329 328 328 328 330 332 334 335 333 331 330 328 327 326 326 325 325 325 326 326 327 327 328 328 327 326 326 326 326 325